Regional Weather Roundup
Issued by NWS Newport/Morehead, NC

Current Version | Previous Version | Text Only | Print | Product List | Glossary Off
Versions: 1 2 3 4 5 6 7 8 9 10 11 12 13 14 15 16 17 18 19 20 21 22 23 24 25 26 27 28 29 30 31 32 33 34 35 36 37 38 39 40 41 42 43 44 45 46 47 48 49 50
000 ASUS42 KMHX 020825 RWRMHX WEATHER ROUNDUP FOR EASTERN NORTH CAROLINA NATIONAL WEATHER SERVICE NEWPORT/MOREHEAD CITY NC 400 AM EDT MON MAY 02 2016 NOTE: "FAIR" INDICATES FEW OR NO CLOUDS BELOW 12,000 FEET WITH NO SIGNIFICANT WEATHER AND/OR OBSTRUCTIONS TO VISIBILITY NCZ015>017-031-032-045>047-102-103-020900- NORTH COAST CITY SKY/WX TMP DP RH WIND PRES REMARKS EDENTON CLOUDY 68 68 100 S6 30.00F FOG ELIZABETH CITY CLOUDY 67 66 97 S8 29.99F KITTY HAWK CLOUDY 68 67 96 SW6 29.99F MANTEO NOT AVBL $$ NCZ045>047-081-094-103-104-020900- CENTRAL COAST CITY SKY/WX TMP DP RH WIND PRES REMARKS FRISCO CLOUDY 68 67 96 SW6 30.02F SWANQUARTER NOT AVBL $$ NCZ095-097-098-100-101-020900- SOUTHERN COAST CITY SKY/WX TMP DP RH WIND PRES REMARKS BEAUFORT MOCLDY 69 68 96 S8 30.03S CEDAR ISLAND NOT AVBL JACKSONVILLE CLOUDY 68 66 93 SW5 30.02S PINEY ISLAND NOT AVBL WILMINGTON MOCLDY 66 64 93 CALM 30.03R $$ NCZ011>013-027>030-043-044-078>080-089-090>093-098-020900- COASTAL PLAIN CITY SKY/WX TMP DP RH WIND PRES REMARKS AHOSKIE CLOUDY 65 65 97 S3 29.98S CLINTON CLOUDY 67 67 100 SW3 30.02F FOG ELIZABETHTOWN CLOUDY 67 67 100 CALM 30.03S FOG GOLDSBORO CLOUDY 70 70 100 SW9 29.99R GREENVILLE CLOUDY 70 68 94 SW7 30.01S FOG HAVELOCK MOCLDY 70 67 90 SW7 30.03S KENANSVILLE MOCLDY 66 65 97 CALM 30.03R KINSTON CLOUDY 69 67 94 SW6 30.01S NEW BERN CLOUDY 68 66 93 S5 30.03S RICHLANDS CLOUDY 65 64 97 S3 30.03R FOG ROCKY MOUNT CLOUDY 67 66 97 S7 29.98F WASHINGTON CLOUDY 66 65 96 S5 30.00F WHITEVILLE CLOUDY 67 66 95 CALM 30.02S FOG $$ AMZ130-135-150-152-154-156-158-170-250-252-270-ANZ085-086-088-633-658-670-020900- MARINE OBSERVATIONS STATION/POSITION TIME TEMP WIND PRES WAVE SWELL AIR SEA DIR/SP/G HT/PER HT/PER (UTC) (F) (DEG/KT/KT) (MB) (FT/S) (FT/S) CHESAPEAKE LIGHT 0800 65 200/ 20/ 20 1015.2 64 E VA BEACH 0750 57 53 190/ 8/ 8 1015.5 5/10 5/10 DUCK 0800 69 66 200/ 11/ 13 1015.2 2 E DUCK 0711 58 N/A 3/ 8 OREGON INLET 0800 69 67 210/ 10/ 11 1016.2 13E OREGON INLT 0800 59 N/A 5/10 5/10 HATTERAS CG 0800 70 68 210/ 6/ 8 1016.4 DIAMOND BUOY 0750 73 73 240/ 10/ 12 1016.8 4/11 3/11 CAPE LOOKOUT 0800 70 210/ 7/ 8 1016.6 BEAUFORT LAB 0800 69 67 200/ 7/ 8 1015.9 30 SE NEW RVR IN 0725 70 N/A 4/ 9 27 SE WRIGHTSVLE 0808 73 72 220/ 10/ 12 1016.6 5 SE WRIGHTSVLE 0708 70 68 210/ 6/ 8 1017.3 225 S CAPE HAT 0750 73 74 150/ 12/ 14 1018.9 3/10 3/10 41 SE CHARLESTON 0750 75 73 180/ 8/ 8 1016.3 3/10 3/10 $$

USA.gov is the U.S. government's official web portal to all federal, state and local government web resources and services.